sat.trackr.live / text

‹ back to catalog

QIANFAN-208

NORAD 69807 · 2026-153H

PAYLOAD ACTIVE UNKNOWN

§ Identity

Operator
Country
PRC
Launch date
2026-07-04
Launch site
TAISC
Launch vehicle
Mass (kg)
RCS (m²)

External: N2YO · Heavens-Above · Gunter

§ Orbital elements

Epoch: 2026-09-20T05:06:35.557920Z

Period
102.61 min
Inclination
88.9975°
Eccentricity
0.0005960
Mean motion
14.03357272 rev/d
Perigee alt
877.9 km
Apogee alt
886.5 km
Semi-major
7,260.3 km
B*
-2.1793e-5
RAAN
351.4887°
Arg perigee
32.6387°
Mean anomaly
327.5161°
Rev number
1,102

§ Raw data

QIANFAN-2081 69807U 26153H   26263.21291155 -.00000020  00000+0 -21793-4 0  99912 69807  88.9975 351.4887 0005960  32.6387 327.5161 14.03357272 11026

JSON: /api/v1/satellites/69807 · /tle

For live sub-satellite position, see the globe view (requires WebGL).

§ Visibility from observer

Set your observer location to see the next 7 days of passes ≥ 10°. The values pass through the URL so the page stays shareable.

No JS? Fill the form by hand. The geolocation button needs JavaScript.